AD5L Weather Reports


Display with metric or nautical units.
time (UTC)temp
F
wind
direction
speed
MPH
gust
MPH
rain 1hr
in
rain 24hr
in
rain mn
in
humidity
%
barometer
mb
20260502224347 75 25 1.0 5.0 0.00 0.05 0.00 47 1019.8
20260502223327 74 29 1.0 7.0 0.00 0.05 0.00 49 1019.8
20260502222343 74 42 2.0 13.0 0.00 0.05 0.00 49 1020.1
20260502221322 74 53 4.0 7.0 0.00 0.05 0.00 50 1019.9
20260502220332 74 344 3.0 17.0 0.00 0.05 0.00 45 1020.0
20260502215349 75 110 2.0 7.0 0.00 0.11 0.00 48 1020.0
20260502214330 73 354 5.0 10.0 0.00 0.11 0.00 51 1020.1
20260502213339 74 5 7.0 14.0 0.00 0.11 0.00 54 1020.3
20260502212329 74 360 3.0 8.0 0.00 0.11 0.00 51 1020.5
20260502211338 74 96 3.0 11.0 0.00 0.11 0.00 48 1020.6
20260502210326 73 77 5.0 9.0 0.00 0.11 0.00 52 1020.9
20260502205335 73 63 5.0 12.0 0.00 0.13 0.00 52 1021.1
20260502204324 73 27 6.0 10.0 0.00 0.13 0.00 52 1021.2
20260502203334 74 33 6.0 11.0 0.00 0.13 0.00 50 1021.2
20260502202323 73 50 6.0 10.0 0.00 0.13 0.00 49 1021.3
20260502201332 73 41 5.0 11.0 0.00 0.13 0.00 50 1021.3
20260502200322 73 37 6.0 13.0 0.00 0.13 0.00 48 1021.5
20260502195335 72 34 6.0 17.0 0.00 0.17 0.00 50 1021.4
20260502194322 73 329 6.0 11.0 0.00 0.17 0.00 54 1021.4
20260502193332 72 27 6.0 9.0 0.00 0.17 0.00 54 1021.6
20260502192322 72 41 5.0 15.0 0.00 0.17 0.00 57 1021.6
20260502191334 72 40 6.0 10.0 0.00 0.17 0.00 55 1021.5
20260502190324 72 63 4.0 9.0 0.00 0.17 0.00 55 1021.5
20260502185334 71 20 4.0 11.0 0.00 0.42 0.00 53 1021.6
20260502184346 70 342 6.0 12.0 0.00 0.42 0.00 54 1021.6
20260502183337 70 55 4.0 10.0 0.00 0.42 0.00 58 1021.7
20260502182344 70 55 3.0 14.0 0.00 0.42 0.00 52 1022.0
20260502181326 71 360 2.0 8.0 0.00 0.42 0.00 59 1022.1
20260502180345 71 330 5.0 10.0 0.00 0.42 0.00 60 1022.4
20260502170321 68 346 3.0 8.0 0.00 0.43 0.00 68 1023.3
20260502164323 67 41 3.0 13.0 0.00 0.43 0.00 69 1023.3
20260502163334 67 2 4.0 9.0 0.00 0.43 0.00 68 1023.4
20260502162325 66 44 4.0 10.0 0.00 0.43 0.00 66 1023.4
20260502161335 65 20 5.0 8.0 0.00 0.43 0.00 68 1023.6
20260502160325 66 252 2.0 9.0 0.00 0.43 0.00 67 1023.5
20260502152339 63 19 0.0 7.0 0.00 0.60 0.00 69 1023.5
20260502151330 63 349 1.0 7.0 0.00 0.60 0.00 74 1023.5
20260502150341 63 6 2.0 7.0 0.00 0.60 0.00 73 1023.5
20260502130336 53 330 1.0 4.0 0.00 0.90 0.00 91 1022.3
20260502123329 50 295 0.0 2.0 0.00 0.90 0.00 94 1021.9
20260502122335 49 309 0.0 3.0 0.00 0.90 0.00 95 1021.7
20260502121325 48 297 0.0 3.0 0.00 0.90 0.00 96 1021.5
20260502120337 48 262 0.0 1.0 0.00 0.90 0.00 96 1021.3
20260502115328 48 262 0.0 2.0 0.00 1.03 0.00 96 1021.1
20260502114339 48 262 0.0 1.0 0.00 1.03 0.00 96 1020.8
20260502113351 48 262 0.0 2.0 0.00 1.03 0.00 96 1020.7
20260502112340 48 289 0.0 2.0 0.00 1.03 0.00 96 1020.7
20260502111322 48 281 0.0 2.0 0.00 1.03 0.00 96 1020.6
20260502110332 48 278 0.0 4.0 0.00 1.03 0.00 96 1020.3
20260502105323 48 259 1.0 3.0 0.00 1.12 0.00 96 1020.0
20260502104334 48 319 0.0 1.0 0.00 1.12 0.00 96 1019.6
20260502103325 49 319 0.0 2.0 0.00 1.12 0.00 95 1019.2
20260502102337 49 319 0.0 4.0 0.00 1.12 0.00 95 1019.2
20260502101328 49 329 1.0 4.0 0.00 1.12 0.00 96 1019.2
20260502100340 49 352 1.0 5.0 0.00 1.12 0.00 96 1019.1
20260502091327 49 326 2.0 5.0 0.00 1.13 0.00 96 1019.2
20260502090338 49 323 2.0 3.0 0.00 1.13 0.00 96 1019.1
20260502071326 50 335 0.0 3.0 0.00 1.18 0.00 96 1019.0
20260502070336 50 333 0.0 3.0 0.00 1.18 0.00 97 1019.0
20260502065327 50 338 1.0 3.0 0.00 1.19 0.00 97 1019.1
20260502064339 51 330 1.0 3.0 0.00 1.19 0.00 96 1019.0
20260502063330 51 308 0.0 3.0 0.00 1.19 0.00 96 1018.9
20260502062341 51 312 0.0 3.0 0.00 1.19 0.00 96 1018.9
20260502061332 51 335 0.0 2.0 0.00 1.19 0.00 96 1018.9
20260502060323 52 335 1.0 2.0 0.00 1.19 0.00 96 1018.8
20260502055333 52 343 2.0 4.0 0.00 1.20 0.00 96 1019.0
20260502054343 52 325 2.0 4.0 0.00 1.20 0.00 96 1019.1
20260502053334 52 323 1.0 3.0 0.00 1.20 0.00 96 1019.1
20260502052340 52 333 2.0 3.0 0.00 1.20 0.00 95 1019.0
20260502051322 52 326 1.0 3.0 0.00 1.20 0.00 95 1018.9
20260502050342 52 328 2.0 3.0 0.00 1.20 0.00 95 1018.8
20260502045324 53 326 0.0 2.0 0.00 1.20 1.20 95 1018.7
20260502044334 53 322 0.0 2.0 0.00 1.20 1.20 95 1018.8
20260502043325 53 326 1.0 4.0 0.00 1.20 1.20 95 1018.8
20260502042334 53 345 1.0 3.0 0.00 1.20 1.20 95 1018.6
20260502041325 54 18 0.0 3.0 0.00 1.20 1.20 95 1018.6
20260502040336 54 331 1.0 3.0 0.00 1.20 1.20 95 1018.7
20260502035327 54 335 0.0 3.0 0.00 1.31 1.20 96 1018.7
20260502034339 54 320 1.0 4.0 0.00 1.31 1.20 96 1018.8
20260502033326 54 356 1.0 2.0 0.00 1.31 1.20 96 1018.7
20260502032337 54 341 1.0 3.0 0.00 1.31 1.20 96 1018.7
20260502031324 54 331 0.0 3.0 0.00 1.31 1.20 96 1018.7
20260502030334 54 333 1.0 5.0 0.00 1.31 1.20 95 1018.5
20260502025323 54 338 1.0 4.0 0.00 1.37 1.20 95 1018.4
20260502024334 54 348 2.0 4.0 0.00 1.37 1.20 96 1018.2
20260502023325 54 353 2.0 6.0 0.00 1.37 1.20 96 1018.1
20260502022336 54 354 4.0 6.0 0.00 1.37 1.20 95 1018.1
20260502021326 54 352 2.0 5.0 0.00 1.37 1.20 96 1017.9
20260502020336 54 349 1.0 6.0 0.00 1.37 1.20 97 1017.6
20260502015347 54 5 4.0 7.0 0.00 1.37 1.20 97 1017.5
20260502014338 54 20 1.0 6.0 0.00 1.37 1.20 97 1017.3
20260502013350 54 11 3.0 8.0 0.00 1.37 1.20 97 1017.1
20260502012331 54 37 5.0 10.0 0.00 1.37 1.20 98 1017.0
20260502011323 53 11 4.0 8.0 0.00 1.37 1.20 99 1016.8
20260502010331 53 32 3.0 6.0 0.00 1.37 1.20 99 1016.7
20260502005322 53 41 3.0 7.0 0.00 1.37 1.20 99 1016.5
20260502004331 53 66 5.0 9.0 0.00 1.37 1.20 99 1016.3
20260502003341 53 15 5.0 8.0 0.00 1.37 1.20 99 1016.1
20260502002332 53 53 4.0 8.0 0.00 1.37 1.20 99 1016.1
20260502001324 53 34 6.0 15.0 0.00 1.37 1.20 99 1015.9
20260502000334 53 20 7.0 12.0 0.00 1.37 1.20 99 1015.7
20260501235326 53 41 6.0 13.0 0.01 1.45 1.20 99 1015.8
20260501234337 53 13 6.0 12.0 0.01 1.45 1.20 99 1015.8
20260501233327 53 23 7.0 12.0 0.01 1.45 1.20 99 1015.8
20260501232340 53 27 6.0 12.0 0.02 1.45 1.20 99 1015.8
20260501231331 53 32 9.0 18.0 0.03 1.45 1.20 99 1015.2
20260501230341 53 16 9.0 19.0 0.05 1.45 1.20 99 1015.0
20260501225332 53 5 9.0 16.0 0.06 1.50 1.19 99 1015.1